Theta_e
305 300 298 298 300 301 302 302 302 302 302 300 299 299 298 298 299 302 303 306 309 312 312 313 313 313 318 322 325 327 329 328 328 328 329 330 330 331 332 333 334 335 336 339 340 341 342 343 344 345 345 346 346 346 346 346 346 346 346 347 347 350 351 351 350 349 349 347 347 348 348 347 349 350 350 351 350 349 352 354 355 355 356 357 357 357
305 299 299 300 301 302 302 302 301 300 301 300 299 297 297 298 298 303 304 306 311 311 309 313 313 313 318 323 325 327 327 325 326 327 328 329 330 331 331 332 333 335 338 338 338 339 340 341 342 343 343 345 343 344 345 345 345 346 346 346 347 349 351 351 350 349 349 349 348 347 347 348 348 349 350 349 350 349 351 353 354 356 356 357 358 359
298 298 300 302 302 302 302 303 302 301 300 300 298 298 296 298 300 303 304 306 308 311 305 309 309 311 318 322 325 325 326 327 328 329 328 329 329 329 331 332 333 334 334 336 337 338 338 339 341 342 343 343 344 343 344 345 345 345 345 346 347 349 350 350 351 350 349 349 350 349 348 349 347 350 352 351 351 352 350 352 354 357 357 358 358 358
295 298 301 302 302 302 301 301 301 300 300 299 298 295 296 300 299 296 300 304 308 308 304 308 309 309 315 321 323 326 326 327 329 329 330 330 329 329 330 332 332 332 333 333 334 335 337 338 339 340 341 342 343 343 343 344 344 345 346 346 347 348 349 349 350 352 350 351 351 350 350 350 349 348 351 351 351 350 350 350 353 356 357 358 358 358
298 298 303 302 301 301 300 301 300 298 298 300 299 298 298 299 300 299 301 303 305 306 308 307 308 307 310 312 317 324 327 327 327 329 329 330 331 332 332 333 333 333 333 333 334 335 335 336 337 339 341 342 342 342 342 344 344 345 345 346 346 347 348 349 351 351 350 351 350 349 349 349 348 349 349 347 347 349 350 351 352 354 356 357 358 358
300 302 303 302 301 300 300 299 300 299 296 298 301 301 301 301 299 300 301 302 298 298 304 308 299 299 307 310 316 320 323 323 325 325 326 328 329 330 329 331 333 334 334 334 334 334 335 336 337 338 340 341 341 342 343 344 345 345 345 346 346 347 348 348 349 350 351 349 348 346 345 344 344 344 344 344 345 346 348 349 351 354 356 356 356 357
301 302 302 300 300 300 300 300 301 300 297 295 299 303 302 302 300 300 300 300 294 294 299 310 300 293 304 307 312 317 319 320 322 323 325 326 328 328 329 330 332 332 333 334 335 335 335 335 336 337 339 341 341 342 344 345 345 345 345 345 346 347 348 349 348 349 351 349 348 347 346 346 344 344 345 346 347 347 349 350 350 352 354 355 355 355
302 301 301 301 300 299 299 298 301 301 297 296 302 302 302 300 300 301 300 299 296 303 303 308 304 297 298 306 311 316 316 318 318 320 323 325 326 328 328 330 331 332 333 333 333 334 335 335 336 336 339 341 342 343 344 344 345 344 345 345 346 347 349 349 349 348 350 348 348 347 346 347 345 345 345 346 346 347 349 348 349 350 353 355 355 354
303 299 300 300 299 298 298 301 301 302 299 300 302 302 301 301 300 301 300 298 298 298 296 298 305 298 297 304 312 313 311 314 315 317 320 322 325 327 328 329 331 332 333 333 333 334 335 335 336 337 338 341 343 344 343 344 345 345 346 346 346 346 348 349 349 349 348 350 349 348 347 346 347 346 346 347 348 347 349 347 348 349 351 353 355 355
303 303 303 303 300 298 300 301 302 302 299 302 302 302 302 302 302 301 299 298 298 295 293 298 301 296 291 299 306 310 310 311 313 316 319 321 323 325 327 328 330 332 333 334 334 335 335 336 337 338 339 341 342 344 346 345 345 345 346 346 346 346 347 349 349 350 348 348 350 348 347 346 346 347 346 346 346 346 347 347 347 348 349 351 353 354
300 308 309 304 301 302 301 302 303 303 303 303 301 301 301 300 299 299 299 298 297 291 295 299 300 299 292 297 306 306 309 312 314 315 318 321 322 324 327 328 329 331 332 333 333 334 336 338 338 338 338 339 342 344 345 345 345 345 345 345 345 346 348 349 349 350 348 348 348 347 347 346 345 346 345 344 345 345 345 346 346 347 349 350 352 353
301 303 303 303 308 305 303 301 303 304 304 302 298 296 295 296 297 295 295 297 290 290 295 299 299 300 292 292 302 312 316 316 315 314 315 318 320 322 324 327 329 331 332 333 333 333 335 336 337 338 338 338 340 342 343 345 345 345 345 345 345 345 347 349 350 350 349 349 348 348 348 347 347 346 346 344 344 346 345 346 346 347 348 349 351 352
298 300 302 302 310 306 302 301 301 302 302 300 297 295 292 286 290 288 291 289 290 289 293 297 298 295 296 298 303 311 315 316 317 317 317 318 320 321 323 326 328 330 332 332 333 333 334 334 335 336 338 338 339 340 342 344 345 345 345 345 344 345 346 349 350 350 350 349 349 349 348 348 348 347 347 346 345 346 346 347 347 347 347 348 349 350
295 299 300 302 302 308 304 298 296 296 299 298 296 293 289 287 286 284 285 286 287 291 295 296 298 295 295 301 306 310 315 318 319 320 320 320 320 321 322 324 327 329 331 332 333 333 334 334 335 337 337 338 339 340 341 343 344 345 346 345 345 345 346 348 350 350 350 350 350 350 350 349 350 348 348 347 346 346 348 348 347 348 348 348 349 350
287 289 297 299 297 305 304 303 301 297 296 298 299 296 294 291 286 284 285 287 288 289 293 296 295 290 296 297 306 311 317 319 321 321 322 322 321 321 322 324 326 327 330 332 332 333 333 334 335 336 337 338 339 340 341 342 344 345 345 345 345 345 346 347 348 350 350 350 350 351 351 351 351 350 349 349 348 347 347 348 348 348 349 349 350 351
293 293 294 302 302 303 302 305 305 300 297 297 300 299 294 294 294 289 288 289 289 289 290 293 292 295 299 303 308 312 315 318 320 321 322 321 322 322 320 320 323 326 328 331 332 333 334 335 335 336 337 338 339 339 341 342 343 344 345 346 346 346 346 347 348 348 350 351 351 351 351 351 351 352 350 349 350 349 348 349 349 348 349 350 351 352
292 292 300 302 303 302 303 305 304 303 293 295 297 294 296 299 298 292 296 296 295 291 290 294 297 296 299 303 304 308 311 314 317 319 320 320 321 321 320 320 321 324 327 329 332 333 333 334 335 336 337 338 339 339 340 341 343 343 344 345 345 346 347 347 349 348 349 350 350 351 351 351 351 351 350 349 349 349 349 349 349 349 350 351 351 352
291 290 296 300 298 303 305 304 305 305 300 294 294 296 300 304 301 295 287 290 290 286 289 292 293 292 296 293 304 306 307 311 314 317 319 319 320 319 320 321 321 323 325 328 331 333 334 335 335 336 337 338 339 339 340 341 343 344 345 345 345 346 346 347 348 349 349 349 349 350 351 351 351 351 351 350 349 350 349 348 349 349 349 350 352 353
297 291 294 299 302 302 305 303 300 303 304 302 297 301 298 290 291 292 291 287 285 286 286 287 292 294 295 296 300 302 306 309 311 314 316 317 318 319 320 322 322 323 324 326 329 331 333 334 335 336 337 338 339 340 340 341 343 344 344 345 346 346 347 348 349 350 350 350 350 350 351 351 351 351 351 351 351 350 349 348 349 349 350 350 351 352
299 292 291 297 299 301 302 300 295 299 302 303 300 298 299 295 294 291 292 289 290 285 287 286 290 293 298 298 300 303 306 309 311 312 314 317 318 319 320 321 323 323 323 325 327 330 332 334 335 336 336 337 338 339 341 341 342 343 344 345 345 347 348 348 349 350 350 350 350 350 351 351 352 352 352 352 351 350 349 349 349 349 349 350 351 351
296 295 290 293 299 300 295 297 297 299 297 298 296 296 295 297 297 298 295 294 290 286 283 286 286 293 296 300 303 303 305 308 310 312 314 317 318 319 321 322 323 324 324 325 326 328 331 333 335 336 337 338 339 340 341 341 342 343 344 344 346 345 346 347 348 349 350 351 350 351 350 350 351 351 352 352 352 351 350 350 350 350 350 350 349 350
296 293 292 294 296 294 295 301 302 302 302 300 298 296 297 295 291 291 290 296 293 290 286 285 288 293 295 305 307 305 305 307 309 312 314 316 319 320 321 322 323 324 325 326 326 328 329 332 334 336 338 338 338 339 340 341 342 342 343 344 345 346 346 347 348 349 350 351 351 350 350 351 351 352 352 352 352 351 350 350 350 350 350 349 349 350
303 297 295 293 295 296 299 302 305 305 304 303 301 298 298 294 292 290 285 289 293 293 295 292 289 294 300 306 307 308 307 307 307 312 314 316 318 320 321 323 324 324 325 326 327 328 329 330 333 335 337 337 338 339 340 341 342 342 343 344 345 346 346 348 348 349 350 350 350 351 351 351 351 352 351 351 351 351 351 351 351 351 350 349 349 349
310 297 293 293 296 298 300 301 301 303 304 302 302 301 298 296 296 296 295 291 292 290 292 290 291 292 301 307 307 307 308 307 306 308 312 314 316 320 321 322 323 323 325 327 328 329 329 330 331 333 335 337 337 338 339 341 342 343 343 344 345 345 347 348 349 349 350 350 350 351 351 351 351 351 351 351 351 351 352 351 351 351 350 349 349 348
295 296 295 288 288 291 295 298 298 300 300 299 299 301 301 300 298 297 295 293 293 292 292 289 288 293 300 307 307 306 306 308 308 308 311 313 315 317 320 321 323 323 324 325 326 328 329 329 330 331 334 336 337 338 340 341 342 342 343 344 345 346 347 348 349 349 350 350 350 350 351 351 351 351 351 351 352 351 352 352 352 351 350 349 348 348
297 296 294 287 285 284 285 286 288 292 295 297 299 300 301 300 298 295 294 292 290 291 293 290 291 289 296 302 306 306 305 305 306 307 310 312 314 315 317 320 322 323 324 325 326 326 327 329 330 331 333 336 337 338 340 341 342 343 344 345 346 346 347 348 349 350 350 350 350 350 350 351 351 351 351 351 352 352 352 352 352 351 351 350 348 348
298 299 297 294 291 288 291 293 296 299 296 296 298 299 299 301 302 299 296 292 292 287 292 292 293 294 300 303 303 304 304 304 306 305 308 310 311 313 315 318 320 322 323 324 326 327 327 328 330 331 332 335 337 338 340 341 342 343 343 344 346 347 348 349 349 350 350 350 350 350 350 351 351 351 351 352 352 353 353 352 352 351 350 350 349 348
295 291 294 295 296 296 297 296 299 300 297 298 298 298 299 299 300 299 296 294 294 290 291 291 293 296 297 299 301 302 302 303 304 305 304 308 311 312 314 315 326 321 323 324 326 326 326 327 330 331 332 334 336 338 339 341 343 343 343 344 346 347 349 350 350 350 350 350 350 350 351 351 352 352 352 353 353 353 353 353 352 352 351 350 349 348
293 290 295 296 294 296 297 298 299 300 299 299 299 299 299 299 299 298 298 297 297 296 295 294 295 296 297 299 302 303 303 304 304 305 305 307 308 311 312 314 315 319 321 322 324 325 326 327 329 331 332 334 336 337 338 341 342 343 344 344 346 347 348 350 350 350 350 351 350 351 352 352 352 353 353 353 353 352 352 352 352 352 351 350 349 349
294 290 296 294 292 294 296 297 299 298 299 299 298 299 300 300 299 300 300 298 298 298 299 298 296 298 299 301 301 303 304 305 305 308 309 311 318 319 314 313 315 317 320 321 323 324 326 327 329 331 332 334 335 336 338 340 341 342 343 343 345 346 349 350 350 350 351 350 351 352 352 352 353 353 353 352 352 352 352 352 352 351 350 350 349 348
292 289 296 293 291 292 295 298 299 298 298 297 298 299 300 300 300 300 300 299 300 299 299 297 297 298 300 301 304 304 304 304 308 309 310 310 313 321 318 315 315 316 319 321 322 323 325 327 329 331 332 334 335 337 338 339 341 342 343 344 345 346 348 350 350 350 351 351 352 352 353 352 352 352 352 352 352 352 352 352 352 351 350 349 348 348
294 289 294 291 288 288 294 295 295 297 298 298 297 297 298 299 297 299 299 300 297 296 297 295 294 296 299 301 303 304 304 305 305 306 308 310 314 321 321 318 315 316 318 321 322 323 325 327 328 330 332 333 335 337 338 339 341 342 342 343 344 346 349 350 350 350 351 351 352 352 352 352 352 352 352 352 352 352 352 352 351 350 349 348 348 347
291 290 288 289 286 286 292 294 294 295 296 294 296 299 299 299 300 300 301 303 302 301 297 296 297 299 301 304 302 303 304 303 304 307 307 310 313 320 322 321 318 317 318 320 322 324 324 326 328 330 332 334 335 337 339 340 341 341 343 343 345 346 347 349 349 350 350 351 352 352 353 352 352 352 351 351 352 352 352 351 351 350 349 348 348 347
292 291 289 292 285 286 291 292 294 293 287 292 302 303 301 300 299 298 298 299 300 301 300 302 303 303 302 301 301 301 303 302 306 311 314 314 313 316 320 321 321 322 322 321 321 323 325 327 329 331 333 334 336 338 339 341 341 343 344 344 345 345 346 347 349 349 350 351 351 352 352 352 352 351 351 352 351 351 351 351 350 350 350 349 348 347
292 293 289 291 286 285 290 291 290 285 289 300 300 302 304 303 300 299 299 301 300 303 304 302 300 301 301 302 303 303 306 314 317 323 325 327 320 315 319 321 320 321 322 323 324 324 325 327 329 331 332 334 336 337 339 339 341 343 344 344 344 345 345 347 347 348 349 350 351 352 352 352 352 351 351 351 351 351 350 350 350 350 350 349 348 347
291 290 290 290 289 290 288 288 283 284 295 301 303 304 311 302 301 304 305 308 311 314 308 302 301 302 303 304 307 315 320 321 321 322 326 330 328 324 314 313 317 320 321 323 325 326 326 327 329 331 332 336 337 338 338 339 341 341 342 344 344 344 345 345 346 347 348 349 350 351 352 352 351 351 351 351 351 350 350 350 350 350 350 349 348 348
295 293 292 287 291 283 286 286 288 296 296 299 299 306 307 304 304 300 297 300 312 314 309 304 305 307 308 306 313 318 318 317 315 317 324 330 331 331 328 322 321 321 318 319 327 329 329 332 331 332 335 335 337 338 338 340 340 341 341 342 343 344 344 344 344 345 347 348 349 351 352 352 352 351 351 351 350 350 350 349 350 350 350 348 348 347
296 292 293 288 287 290 285 286 289 288 287 291 303 309 312 313 313 311 305 301 310 317 318 311 308 310 309 309 314 314 311 312 310 313 320 330 332 333 334 333 333 331 332 334 330 326 331 330 331 333 334 335 336 338 339 340 340 340 340 341 342 343 343 343 344 345 346 347 349 350 351 352 352 351 351 351 350 350 350 350 351 350 350 348 347 346
297 296 295 292 289 292 289 285 285 286 288 299 304 309 312 314 314 313 304 297 307 316 319 316 314 315 310 312 311 309 307 305 306 312 320 330 332 333 332 333 334 334 333 335 338 338 338 330 331 332 335 335 336 338 339 340 341 341 340 340 341 342 342 342 343 344 345 347 349 350 351 352 352 351 351 350 350 351 350 350 350 351 350 349 348 347
294 295 297 293 291 293 292 288 286 293 296 303 307 310 313 315 316 305 294 293 306 319 320 319 318 317 316 312 310 308 306 307 308 314 327 332 333 332 331 331 330 331 332 334 336 338 339 338 333 330 332 332 335 337 339 339 341 341 341 341 341 341 341 342 344 345 346 347 348 349 350 352 352 352 351 350 351 351 351 351 351 350 349 349 349 347
296 300 300 294 295 295 294 289 291 294 304 308 309 312 314 317 306 296 290 298 314 319 320 319 319 318 317 318 317 316 317 315 318 325 331 332 331 331 333 333 332 332 331 332 334 339 337 336 332 332 331 333 334 335 338 339 339 339 341 341 341 341 342 344 345 345 346 346 347 348 349 351 352 351 352 352 351 352 351 351 351 350 349 349 348 347
296 298 300 301 295 290 292 290 289 294 303 309 312 314 316 309 294 290 304 319 319 319 321 322 324 323 324 323 324 324 324 326 328 328 329 330 330 331 332 333 334 334 334 334 337 336 337 338 336 336 337 338 339 340 339 339 339 339 339 340 341 342 344 345 345 345 345 345 346 347 348 349 351 352 352 352 352 350 350 351 351 351 350 349 348 346
295 292 292 294 298 294 293 291 289 284 298 312 313 313 316 305 307 315 319 320 322 320 321 321 323 322 324 322 323 323 324 324 325 326 327 328 329 330 331 332 332 332 332 332 333 334 336 334 336 337 337 340 340 344 342 339 339 338 338 339 341 343 342 343 343 344 345 344 344 345 346 348 349 350 352 352 351 350 350 350 350 350 349 349 347 346
300 293 293 298 302 290 291 288 288 299 307 314 313 305 312 313 315 316 317 317 319 318 318 319 320 320 322 322 321 321 321 321 321 322 323 324 327 329 331 332 332 333 333 334 334 333 335 334 337 338 340 339 339 340 343 342 339 338 338 339 341 344 341 341 342 343 343 343 343 344 345 347 348 349 351 351 351 350 349 349 349 349 349 348 346 344
300 298 301 292 304 299 295 298 308 312 314 316 316 316 316 317 315 315 316 316 316 317 318 317 319 320 321 321 320 319 318 319 319 320 321 321 322 324 327 329 330 331 332 333 333 334 334 334 336 338 339 338 336 337 338 340 341 340 339 339 339 344 343 341 340 341 342 342 342 342 342 343 345 347 349 350 350 349 349 349 349 348 347 347 345 342
305 309 310 307 304 311 313 312 315 314 313 314 317 318 317 317 316 315 313 311 313 315 316 316 317 318 319 319 318 316 317 317 318 318 319 320 322 323 325 326 328 330 332 334 334 334 334 336 337 338 338 337 337 337 336 336 338 339 342 343 344 347 344 342 340 340 340 341 341 342 342 342 343 346 348 349 350 350 350 349 348 347 344 344 342 340
302 306 307 301 305 301 295 312 312 312 312 313 314 316 318 319 317 316 314 314 314 314 314 315 316 316 317 317 317 315 315 316 317 318 319 320 323 325 327 328 328 330 332 332 334 335 335 335 336 336 335 336 337 337 338 335 336 337 340 342 344 347 346 343 342 341 342 343 343 343 343 343 344 345 347 348 350 351 350 350 348 345 342 342 341 339
295 305 303 304 303 298 300 310 311 315 313 315 315 314 314 316 317 318 317 317 316 317 317 316 315 315 315 314 314 315 314 315 317 317 319 319 321 323 326 327 327 328 331 333 335 336 336 336 336 336 336 335 336 338 337 335 335 336 337 338 340 342 344 343 342 343 343 344 344 344 344 344 345 346 347 349 350 349 349 348 347 344 341 341 341 339
300 305 296 304 302 306 310 309 310 312 314 313 316 317 317 316 316 316 317 317 316 316 316 317 316 315 315 314 314 315 315 314 315 316 318 318 319 320 321 324 325 326 329 332 334 336 336 337 337 337 336 336 337 337 337 336 336 336 336 338 340 340 339 339 338 341 342 343 343 343 342 340 340 343 346 348 349 349 349 348 346 344 343 345 345 344
297 294 303 304 299 300 301 303 308 303 303 309 313 316 316 318 318 316 316 316 316 314 315 315 315 316 316 316 315 315 314 314 315 317 318 318 319 319 321 323 325 327 328 330 333 333 335 337 338 337 336 336 336 336 337 337 337 337 339 338 338 339 339 339 338 337 338 339 339 339 340 340 339 337 337 339 335 330 319 311 304 318 342 340 329 326
298 301 302 299 296 298 308 309 311 312 310 310 312 316 318 319 317 315 315 315 316 316 315 314 314 313 314 315 316 316 315 315 315 317 318 319 319 320 321 323 325 327 328 330 331 332 333 335 336 335 334 334 336 336 336 336 337 336 338 339 338 338 337 338 338 338 336 336 337 337 338 335 332 331 332 332 334 333 326 322 315 299 296 311 324 320
Wind_Speed
5 10 11 14 10 8 5 7 9 7 8 6 3 3 7 7 9 7 4 7 4 6 11 14 14 12 14 17 19 19 15 12 11 14 14 15 15 16 15 16 18 19 20 17 16 16 17 17 15 13 12 13 13 13 13 14 14 14 14 13 14 12 11 11 11 10 10 10 9 8 10 10 9 8 8 8 7 7 6 6 7 6 6 6 6 6
7 12 15 8 5 7 6 4 4 6 8 8 7 6 9 6 11 9 2 4 1 5 7 8 11 11 16 17 17 16 16 18 18 17 17 18 17 16 19 19 18 20 12 10 11 13 13 14 15 13 12 13 15 14 15 17 17 15 15 15 13 10 12 12 12 11 10 10 10 10 10 9 8 8 8 8 7 7 5 6 6 6 6 6 6 6
9 16 7 7 5 4 4 5 5 7 9 8 8 7 7 11 7 10 6 7 3 5 7 3 6 7 12 17 16 19 22 20 19 22 23 22 19 16 17 19 19 13 11 14 17 17 16 18 17 15 14 15 18 18 18 17 15 14 14 14 13 12 12 12 12 11 11 10 9 9 8 10 8 6 7 7 6 5 6 6 7 7 6 7 6 7
9 9 8 5 7 6 6 5 5 5 5 7 7 5 11 8 1 8 3 3 1 6 2 7 8 4 5 6 15 19 19 17 18 20 19 20 22 20 21 20 18 17 15 17 18 18 17 17 16 16 15 16 15 14 14 14 16 14 14 14 14 14 13 12 13 13 11 11 9 8 7 7 7 6 5 4 3 4 5 6 6 6 7 8 7 7
12 1 9 8 7 8 9 8 6 6 9 7 8 8 10 8 8 7 6 2 2 4 4 2 4 3 8 8 8 11 13 9 11 12 12 14 17 21 21 19 19 22 20 19 18 17 17 17 18 19 19 16 16 16 16 17 17 13 18 17 17 14 14 13 13 13 11 9 9 7 4 3 4 2 3 4 6 6 7 7 6 7 7 8 8 8
13 8 4 10 7 6 8 9 11 7 8 9 11 11 11 7 5 6 5 5 5 7 1 6 1 5 8 15 17 14 11 13 11 14 18 18 16 13 14 18 18 18 20 22 22 22 21 21 19 19 17 16 16 17 17 18 19 18 16 15 15 13 12 13 13 13 11 11 11 9 9 9 9 10 8 11 11 9 8 9 5 6 8 8 8 8
10 4 7 7 11 11 11 11 9 7 9 7 12 7 8 7 5 5 3 2 4 6 6 4 7 4 2 12 14 11 16 20 13 17 19 17 16 16 16 16 17 18 17 15 18 21 21 21 21 20 19 19 19 19 17 17 17 17 15 15 16 14 13 13 13 14 12 12 11 14 14 12 12 12 10 7 6 8 7 6 7 7 7 8 9 8
6 10 9 8 9 13 12 13 11 8 6 12 8 3 1 3 6 9 5 5 7 3 4 2 3 4 3 9 13 17 18 19 17 17 18 17 16 18 17 17 18 18 19 18 18 18 20 20 21 21 22 20 21 20 17 16 15 17 16 16 16 14 13 13 13 14 14 13 12 12 13 12 12 13 11 9 7 6 6 7 7 6 7 8 8 7
13 8 13 13 10 10 15 11 5 9 10 10 1 5 7 4 5 6 4 6 6 5 12 7 4 4 4 6 13 18 15 16 18 19 19 19 19 20 20 19 20 20 20 20 18 20 21 21 21 21 21 22 23 20 18 18 17 18 17 17 16 15 14 13 15 15 16 14 14 13 12 12 11 11 9 6 5 6 6 7 6 6 7 7 8 7
5 13 16 17 12 13 6 5 10 11 13 12 4 5 4 3 4 4 6 5 4 4 12 14 7 7 6 5 7 9 17 21 21 21 21 22 23 22 20 20 20 18 17 18 20 21 22 23 24 24 24 22 19 18 19 19 17 17 16 17 17 17 15 14 16 16 17 16 14 13 13 15 12 9 7 5 7 7 6 8 7 6 7 7 7 7
4 7 14 11 12 10 6 7 10 12 17 1 3 7 12 8 3 1 3 4 1 8 14 14 8 9 8 7 10 12 15 18 16 15 16 18 19 20 21 21 20 19 18 18 19 19 20 22 23 22 21 21 19 16 17 16 16 15 16 17 18 18 15 15 17 17 18 16 15 14 15 16 14 11 9 7 7 6 6 8 8 7 8 6 7 7
4 1 4 4 10 6 6 7 8 11 9 7 3 5 4 10 6 5 2 2 6 14 7 9 10 9 10 6 6 13 18 22 22 21 22 21 23 22 20 20 20 20 19 19 18 19 19 17 17 16 19 19 19 16 16 15 15 15 16 16 18 17 17 16 16 18 18 16 16 15 15 15 14 13 10 11 11 10 10 10 9 8 6 6 6 6
9 13 2 4 7 13 8 9 9 9 10 9 6 3 8 2 2 7 3 8 12 11 2 7 6 2 14 8 8 12 15 18 19 19 22 24 24 24 23 23 20 19 18 18 19 18 17 18 19 18 19 18 17 17 18 18 17 16 16 18 19 19 18 17 17 18 19 17 17 16 16 15 13 13 13 12 11 10 10 9 9 8 8 7 7 8
8 2 8 10 4 8 10 12 9 9 11 11 12 9 7 8 8 9 6 2 5 6 3 5 5 9 2 7 13 13 17 20 22 21 21 24 25 25 24 22 19 18 19 19 19 18 18 19 19 20 20 20 19 20 20 19 18 16 16 18 20 20 19 17 17 18 18 19 18 17 15 14 12 12 12 11 11 10 9 9 10 10 10 9 10 9
6 5 14 11 10 10 12 14 13 3 5 11 5 9 10 5 4 6 5 12 10 7 4 2 4 6 9 7 8 14 17 19 20 22 22 22 23 25 25 20 20 18 18 18 18 19 19 20 20 19 20 19 19 21 21 18 18 17 17 19 20 19 19 18 18 17 19 18 18 16 15 13 12 12 11 11 10 10 10 9 9 9 8 9 9 9
16 11 5 14 7 10 13 10 8 7 4 5 8 4 7 16 5 5 6 3 3 4 5 3 6 6 8 3 6 13 14 16 19 21 22 20 17 17 11 12 15 17 18 17 18 19 21 20 20 19 19 19 19 20 19 20 18 18 19 19 20 21 20 20 19 18 19 18 16 16 15 15 14 11 10 9 9 9 10 10 10 10 9 9 8 7
3 12 7 1 7 8 13 9 8 11 10 4 9 13 13 7 7 5 5 3 0 2 8 2 4 6 7 5 5 6 10 14 13 16 17 18 17 14 14 15 17 18 18 18 19 19 21 19 18 19 19 19 19 18 19 20 20 21 19 18 20 20 18 19 20 20 18 18 16 17 16 15 14 14 13 13 13 12 10 10 9 9 9 8 7 7
8 7 1 9 7 13 11 8 10 13 6 5 9 10 3 2 4 7 8 4 7 9 6 3 8 4 3 9 2 5 6 10 11 16 18 18 15 10 14 15 17 19 20 21 22 20 20 20 21 20 19 20 20 21 21 22 20 19 19 20 21 20 21 20 20 19 18 18 17 16 16 16 16 14 14 12 12 11 10 9 9 8 7 9 8 8
6 9 5 10 15 8 8 7 5 6 11 14 9 8 10 5 11 4 2 12 8 10 3 2 2 6 10 6 2 5 7 11 9 10 12 15 14 13 13 15 17 18 17 17 18 17 17 18 19 20 21 22 21 21 22 21 20 18 17 18 20 22 23 22 19 18 16 17 14 14 16 17 15 14 13 12 11 10 11 11 10 10 9 8 7 7
4 9 6 3 9 6 6 9 14 12 8 8 5 7 5 6 9 8 9 2 4 6 3 6 2 12 6 7 8 10 10 11 12 11 12 16 15 14 14 15 16 17 18 18 18 18 20 20 21 22 22 21 21 20 19 18 16 18 19 19 18 18 17 16 18 18 18 18 16 14 14 14 15 14 13 12 12 12 13 12 11 11 9 10 8 9
6 4 13 2 6 6 7 6 12 14 14 10 7 9 4 4 1 7 1 8 7 4 4 3 6 10 6 7 10 11 12 12 12 13 13 15 15 15 16 16 16 18 18 18 18 19 20 21 21 21 21 21 21 20 18 16 19 20 17 18 19 19 19 19 20 18 17 15 16 15 16 16 14 15 13 13 13 13 12 11 11 11 10 7 9 9
5 5 12 6 6 9 4 8 13 15 15 12 12 13 12 9 4 11 11 2 3 5 7 5 17 7 4 6 10 10 10 10 11 12 12 13 15 17 16 17 17 17 19 19 19 19 20 21 21 20 19 18 17 15 15 18 18 17 18 19 18 18 18 20 19 18 18 16 15 17 16 16 14 14 12 14 14 14 13 12 12 10 9 10 10 10
4 4 6 14 13 8 9 10 12 16 14 14 11 11 9 5 5 5 6 8 2 7 4 4 4 13 7 9 10 10 9 10 10 11 12 12 14 15 16 18 18 18 18 19 19 19 20 20 20 20 20 20 19 20 20 18 17 18 20 19 17 19 20 20 20 18 16 16 15 17 15 14 14 14 15 15 14 15 14 13 12 10 11 10 9 9
14 0 4 8 7 5 4 4 5 7 11 12 12 9 10 11 9 10 10 6 6 1 3 1 10 5 3 6 9 10 10 10 7 7 11 10 8 10 14 16 15 14 16 16 17 17 17 16 16 15 15 17 17 16 17 18 19 18 17 18 18 21 22 20 18 16 16 16 16 16 15 16 14 15 15 16 15 16 15 13 12 11 11 11 9 10
5 4 2 2 3 6 6 4 6 1 3 6 8 11 13 9 12 7 3 2 6 8 8 7 18 2 2 2 5 6 7 9 9 8 9 10 8 10 12 12 11 13 14 15 16 17 16 15 14 14 16 17 18 17 17 18 18 18 18 18 19 20 20 18 16 16 16 16 16 16 16 16 15 15 16 16 15 16 15 14 12 11 12 11 10 10
4 4 2 5 12 11 9 10 9 9 8 1 3 8 14 18 16 6 13 3 10 4 8 7 8 2 6 1 3 8 8 7 7 7 7 9 10 11 10 12 13 13 14 15 16 16 16 16 16 15 16 16 16 17 16 17 18 18 18 20 20 19 18 18 16 17 16 16 16 16 17 16 16 17 17 17 15 16 15 13 12 12 11 12 12 10
1 3 3 3 3 6 4 5 9 2 5 14 13 9 12 18 20 16 8 7 14 3 10 9 4 2 1 3 5 9 6 9 8 5 8 9 10 10 10 11 13 14 16 18 19 18 16 11 14 16 17 18 18 18 16 17 18 18 18 19 19 18 18 18 17 17 17 17 17 16 17 17 17 16 15 15 15 13 12 13 13 13 13 12 12 12
2 3 5 6 6 6 8 11 16 15 16 12 14 15 12 13 16 19 17 15 8 7 15 4 6 6 7 5 6 8 8 6 8 9 7 6 9 11 12 11 11 11 11 11 12 13 13 15 16 17 17 17 17 17 16 16 17 18 18 18 18 17 16 14 16 17 17 17 17 18 18 18 16 15 15 14 13 12 12 12 12 13 12 11 13 13
1 2 5 9 15 14 13 14 14 13 12 13 13 16 17 15 14 19 21 7 14 13 19 6 7 6 6 8 9 11 10 9 12 12 7 4 4 6 7 9 10 12 14 15 16 16 16 16 15 17 17 18 17 18 18 16 16 15 15 15 16 17 19 18 18 18 17 17 18 18 18 16 14 13 13 13 13 13 13 13 13 12 11 12 12 11
2 4 3 10 16 16 15 14 13 11 10 12 13 16 18 18 19 20 18 12 17 14 11 10 11 13 10 8 9 11 11 10 8 1 2 4 6 7 9 11 13 15 16 16 16 16 15 16 16 17 17 17 18 19 18 17 17 17 18 18 17 17 17 15 16 17 17 18 19 17 16 15 13 13 13 13 14 14 13 12 12 12 12 13 13 13
4 5 10 12 10 13 15 11 10 14 11 12 13 13 17 19 21 21 18 15 13 14 11 6 8 12 8 7 9 9 7 2 2 2 6 8 7 5 7 10 12 13 14 15 14 15 15 16 16 14 13 15 18 19 19 18 18 18 18 17 17 18 16 16 17 17 18 19 18 15 15 14 14 13 14 14 13 12 12 12 11 12 13 13 14 14
2 4 3 5 9 9 8 10 18 18 17 11 12 14 16 20 21 18 16 10 9 11 10 7 7 9 7 9 6 5 4 5 8 7 6 7 7 6 7 10 11 12 12 13 13 14 14 15 15 14 16 18 19 19 18 17 16 16 17 17 18 17 16 16 16 18 19 19 14 14 15 15 14 14 15 14 14 14 13 12 12 13 13 14 14 13
3 0 5 5 9 6 10 11 15 19 14 11 15 20 18 11 11 11 11 13 16 14 12 16 18 8 13 10 6 7 7 8 5 5 6 7 6 5 7 7 8 9 10 12 13 14 15 17 18 19 20 18 17 18 19 19 17 18 18 18 18 15 15 17 17 17 17 16 14 15 15 14 15 15 14 15 15 13 12 13 14 15 14 16 15 12
4 3 3 1 3 8 16 14 13 6 6 18 9 6 10 16 11 10 10 9 8 12 13 14 16 13 11 4 7 8 11 8 5 1 1 2 3 4 5 6 7 7 7 8 8 11 14 13 13 15 18 19 20 21 19 18 19 19 18 18 14 15 16 16 17 17 17 16 16 15 15 15 15 16 16 14 13 13 14 15 17 17 15 13 12 14
3 3 3 2 3 6 9 10 7 4 11 5 11 4 13 14 7 11 9 8 10 9 5 1 5 8 9 10 10 9 5 4 3 2 4 3 2 2 4 6 5 5 6 5 5 7 9 14 14 14 13 13 15 14 13 14 14 13 12 12 14 15 17 18 19 19 18 17 15 14 14 16 16 16 15 14 14 14 16 17 16 16 14 14 15 16
6 6 2 2 3 4 4 3 3 8 6 13 16 8 17 3 4 9 3 3 3 3 5 6 7 9 6 5 4 6 10 7 4 4 4 5 4 4 4 4 4 4 5 5 5 6 5 7 13 16 16 15 14 14 15 17 16 15 15 15 17 17 17 17 17 17 15 14 15 15 16 16 16 15 14 15 15 16 17 17 17 17 15 14 13 13
14 5 5 4 4 4 5 4 9 12 17 13 3 7 9 4 7 5 11 9 3 2 7 8 8 5 4 7 10 8 6 4 5 5 4 7 7 5 4 4 5 6 6 6 5 7 5 3 3 5 6 10 12 14 15 15 14 15 15 14 14 14 15 15 15 16 15 15 16 16 16 16 17 16 16 16 17 18 17 17 17 16 13 14 14 14
17 12 6 6 3 7 5 6 4 3 4 4 0 7 5 7 10 11 4 7 2 2 2 4 8 9 10 10 12 10 4 9 5 1 5 9 8 9 7 5 5 5 6 7 6 3 4 5 4 4 3 5 10 15 14 13 13 13 13 14 14 14 14 15 16 17 16 16 17 17 17 17 17 17 17 16 19 18 17 17 15 15 13 15 15 15
17 16 11 10 6 3 2 3 3 3 5 1 10 14 16 15 12 9 2 7 3 2 2 3 3 2 11 18 11 6 6 6 3 4 6 8 9 7 9 8 6 6 6 7 8 9 7 3 5 5 4 5 8 10 11 13 14 14 14 14 14 15 15 16 17 16 16 17 17 17 16 16 17 17 18 18 18 17 18 17 16 14 13 14 14 14
15 11 9 8 10 7 3 2 4 3 5 6 14 16 21 18 16 1 9 7 1 4 3 3 3 4 3 4 10 5 7 12 8 3 4 6 5 4 7 10 11 12 10 8 8 8 6 3 2 5 8 8 10 5 2 5 12 16 16 14 13 14 15 17 17 16 16 17 16 14 14 15 18 19 19 20 18 17 18 15 13 14 14 14 13 12
10 6 10 9 9 7 5 2 3 6 4 7 14 20 22 18 4 10 11 2 1 2 2 2 3 2 4 6 3 8 1 3 3 0 4 6 7 9 9 8 6 5 9 10 9 10 8 6 1 4 4 6 6 4 5 5 5 8 10 12 13 16 19 18 17 16 16 16 14 14 16 16 17 20 19 18 18 17 16 14 15 15 15 15 13 11
10 6 4 6 4 6 4 3 6 7 4 9 15 20 17 8 4 5 4 9 2 2 3 2 7 4 7 9 9 9 7 5 4 2 5 7 8 7 8 10 11 13 12 9 10 10 9 8 7 6 6 5 2 4 9 8 8 9 7 8 13 17 18 16 16 16 15 13 13 13 14 15 15 17 15 15 13 13 15 15 15 15 16 13 12 12
5 10 7 8 3 3 2 1 4 7 6 13 19 13 11 6 4 7 9 6 6 3 3 4 4 3 7 11 9 10 9 6 5 5 7 8 9 10 10 10 11 11 11 14 15 14 11 9 9 8 6 5 3 1 6 8 12 9 7 9 13 10 5 3 5 7 8 9 10 11 12 13 14 13 11 11 13 14 14 11 12 12 11 12 11 10
10 6 7 5 4 6 5 7 6 5 7 13 10 6 7 7 9 9 5 5 7 6 5 2 5 3 4 12 10 9 6 6 5 4 5 7 7 7 7 9 10 9 10 9 7 9 10 9 8 9 8 7 6 6 1 10 9 9 11 13 8 4 5 5 6 6 7 7 7 9 10 11 13 13 12 13 13 13 13 12 13 13 12 13 12 11
5 5 4 7 2 3 6 6 2 2 6 7 7 6 8 7 8 10 9 6 6 6 5 2 3 3 4 9 9 9 9 6 5 4 7 5 6 7 8 8 8 8 9 9 10 11 8 9 9 7 8 8 9 7 8 4 6 9 10 8 5 6 7 8 7 8 9 10 9 9 7 6 6 7 7 8 9 10 11 12 13 13 12 12 11 12
9 7 2 5 2 1 2 2 3 2 5 6 6 7 7 9 10 10 12 11 10 9 7 4 5 4 3 2 10 6 6 4 6 4 5 4 5 5 4 5 8 7 7 7 9 10 9 9 9 9 9 7 7 8 6 6 7 3 6 5 8 8 9 9 9 9 10 11 11 11 11 11 10 10 10 10 10 12 12 14 13 12 11 11 11 12
13 10 6 6 3 4 4 4 3 3 1 4 5 8 7 7 6 8 10 11 10 12 11 9 5 6 6 6 8 8 6 4 7 5 4 4 6 6 6 7 8 8 9 9 8 7 7 7 7 8 10 10 9 9 7 7 5 4 6 6 4 5 11 11 13 12 11 11 10 10 11 14 12 12 12 12 12 13 13 12 11 12 12 14 14 15
9 9 8 5 7 5 4 4 2 2 3 4 4 7 9 10 11 10 9 11 10 11 11 11 7 7 5 8 6 8 8 5 7 6 6 5 5 4 5 6 6 6 6 6 6 6 5 6 6 6 6 7 10 10 8 7 7 8 7 4 6 8 5 9 13 14 14 16 15 14 14 14 20 20 15 17 17 15 13 12 14 15 16 17 18 18
9 7 7 7 5 3 5 3 1 2 1 4 5 4 4 4 4 6 10 10 11 10 9 8 7 5 7 7 5 7 10 8 6 5 7 6 6 6 6 5 4 4 4 6 6 6 6 6 7 5 6 6 5 6 8 9 8 8 8 7 7 6 7 9 6 7 9 11 11 13 11 6 1 4 11 17 17 16 17 19 18 17 16 17 16 18
9 10 6 9 5 7 5 5 5 6 3 2 3 2 2 3 2 5 8 9 8 8 8 5 4 6 7 6 6 7 9 6 6 6 9 8 7 7 7 7 7 7 8 6 4 5 4 5 5 6 6 5 4 5 6 6 7 7 7 7 7 7 7 8 8 6 5 4 4 3 5 7 9 9 6 4 8 11 7 11 9 2 12 13 12 16
9 4 3 5 9 6 4 6 5 3 6 5 6 5 2 1 3 7 7 7 4 4 9 6 1 5 7 6 4 7 7 7 5 6 9 8 7 6 6 7 8 8 9 8 8 8 6 5 5 6 6 6 6 5 6 6 6 6 6 6 5 6 6 5 6 7 6 1 1 6 9 10 10 9 9 10 11 10 10 7 7 14 14 7 14 24
Wind_Direction
142 209 205 210 214 212 208 207 223 234 240 250 218 217 242 249 272 257 254 254 240 204 208 201 202 183 179 182 184 182 181 186 178 180 183 186 185 184 185 188 194 197 202 192 186 183 186 187 186 184 183 187 188 189 188 189 192 191 191 188 195 192 188 190 191 193 192 194 199 205 206 211 211 212 212 210 202 201 202 194 192 193 196 195 190 188
164 220 224 212 204 197 213 217 222 242 244 231 241 239 259 244 260 265 285 286 276 164 255 239 205 195 185 184 182 175 177 189 187 185 188 190 190 187 187 191 195 204 200 179 185 187 183 187 187 185 186 185 188 194 190 194 194 193 190 192 192 187 192 196 195 194 196 199 200 199 206 205 207 205 205 211 206 197 197 197 194 192 190 190 192 188
206 226 222 198 186 187 212 222 214 217 243 241 227 235 264 258 251 288 253 253 246 193 245 179 216 224 198 185 180 179 188 194 190 185 189 186 188 190 192 194 197 191 188 188 193 188 186 187 186 187 188 191 194 192 194 195 191 191 194 194 190 192 191 196 195 195 201 199 203 201 204 200 207 211 206 206 202 185 192 200 199 191 186 189 195 190
232 248 209 178 169 193 239 236 239 247 245 242 236 225 235 250 263 279 282 256 251 194 209 169 205 238 230 206 190 193 189 197 196 194 192 189 186 188 191 192 191 191 187 191 191 191 191 188 187 190 192 195 193 193 193 190 195 195 197 194 193 193 193 193 196 198 199 201 205 209 208 210 205 202 205 207 200 193 190 207 201 194 188 190 194 191
211 267 180 163 171 183 222 234 233 239 258 249 230 232 240 242 229 215 271 352 266 289 276 206 162 124 163 185 217 223 212 205 201 200 205 210 205 194 191 192 189 188 188 191 191 192 189 188 192 193 196 191 190 194 193 192 194 196 197 195 193 192 193 194 195 194 192 196 203 205 214 213 221 250 188 198 220 205 201 203 197 199 190 193 195 194
235 239 140 177 184 195 206 232 228 208 251 262 253 224 233 227 237 256 296 334 350 310 304 126 186 254 187 193 199 196 196 211 205 200 206 205 207 205 201 197 196 199 194 187 187 190 189 190 192 194 193 191 196 196 197 195 196 196 196 192 192 193 191 194 194 189 187 195 194 189 195 200 203 211 200 207 206 201 203 206 192 195 193 194 199 197
224 176 157 186 197 206 213 225 222 184 232 246 251 217 223 228 223 247 259 15 286 258 282 167 176 259 230 189 204 201 198 207 200 205 210 205 204 203 203 200 197 198 202 206 197 191 189 192 190 192 190 192 195 201 197 196 198 197 192 191 192 193 192 191 189 188 189 195 199 198 201 201 202 207 217 208 198 201 200 182 190 196 192 196 199 200
153 183 195 197 194 205 216 225 222 187 212 246 248 300 183 176 210 236 229 202 243 275 283 297 154 204 248 226 199 199 200 207 207 210 210 208 206 207 205 201 200 199 198 195 198 196 196 193 190 191 194 193 198 198 192 194 195 194 192 189 192 194 192 190 187 188 192 195 198 201 204 205 207 208 209 195 199 192 172 184 190 187 195 197 202 195
170 186 193 204 206 210 218 215 198 185 206 239 122 228 262 219 219 238 207 215 236 252 272 252 169 243 238 246 198 185 204 213 215 211 210 210 209 211 207 204 203 201 198 196 196 195 195 194 196 197 195 198 198 193 190 192 192 192 192 190 191 193 192 191 188 190 195 197 196 199 201 209 214 212 210 193 188 186 184 190 189 189 195 200 202 195
191 190 194 199 201 223 212 194 199 193 226 241 250 301 274 267 227 208 225 213 235 198 243 253 170 222 263 252 173 194 198 204 211 211 211 209 208 208 208 208 205 202 202 201 200 198 196 195 196 196 197 197 198 194 194 194 190 189 189 190 188 193 192 190 191 193 196 199 197 197 201 207 209 205 203 180 193 197 187 201 199 196 195 200 197 196
214 200 188 188 209 213 177 208 201 214 227 53 154 243 268 281 302 304 183 172 179 234 235 237 216 186 252 239 183 168 208 208 209 215 217 215 216 213 210 206 203 200 201 201 202 203 202 200 198 196 195 198 197 196 196 195 193 189 188 189 190 193 192 189 192 193 198 199 200 202 203 205 205 201 195 189 202 199 193 206 209 203 207 194 197 186
241 279 171 229 199 192 159 203 216 215 219 206 191 203 271 281 293 294 307 101 211 250 225 222 228 175 233 270 254 204 194 198 198 205 208 210 214 213 210 209 206 201 200 200 200 202 203 204 207 201 202 199 197 194 195 197 194 193 191 189 191 193 191 190 192 194 198 198 202 204 204 206 206 198 197 199 204 202 203 206 209 208 204 200 194 187
220 225 204 272 194 187 179 197 224 211 207 196 205 175 179 265 176 257 196 239 221 235 239 207 198 256 239 226 203 210 201 202 207 207 206 209 212 212 211 208 204 202 200 199 200 201 199 199 200 199 203 200 197 198 196 195 194 193 194 192 193 195 191 190 190 195 198 199 202 203 203 206 204 201 199 199 204 203 206 207 208 200 204 196 191 194
244 250 236 235 272 200 175 189 200 220 207 192 199 187 170 209 213 225 231 321 298 268 250 197 183 232 277 263 212 201 204 199 199 207 210 210 210 211 211 206 202 200 199 200 201 200 199 200 200 200 199 198 198 198 197 195 193 193 195 195 196 198 192 190 191 194 197 201 203 202 202 202 201 203 199 200 201 202 205 204 207 203 202 198 200 191
220 233 234 189 229 170 196 203 199 188 164 208 182 175 206 213 182 208 201 219 228 228 261 224 143 227 201 247 194 200 203 206 202 203 208 212 213 214 212 202 198 198 201 200 200 201 201 201 199 199 200 201 200 198 196 195 195 191 195 195 198 197 196 193 193 195 199 202 203 202 202 201 200 202 198 201 200 198 200 205 205 207 204 203 202 196
215 230 265 211 193 157 208 206 187 172 206 196 183 142 190 222 123 226 202 170 243 261 270 192 203 190 203 242 217 195 203 207 208 208 211 212 213 217 212 200 202 204 202 200 202 204 204 202 200 200 200 201 201 198 197 197 194 193 196 194 196 197 195 196 195 197 199 202 202 201 200 202 201 200 197 198 200 201 199 201 203 205 203 205 199 193
109 243 197 63 203 191 202 180 203 154 208 200 132 208 214 110 188 257 279 222 95 15 254 168 263 292 305 316 247 224 203 211 215 217 215 215 213 202 202 200 202 204 203 200 203 204 204 202 203 202 200 201 201 198 198 198 196 196 192 192 195 198 196 197 199 200 201 202 200 201 201 201 202 200 198 198 198 198 196 197 202 205 204 203 196 188
167 250 239 172 222 226 210 184 189 188 149 124 194 215 88 179 196 197 228 264 237 240 256 194 216 266 200 256 293 186 197 226 207 211 214 218 214 191 204 201 202 203 203 203 203 203 201 200 201 202 204 202 199 198 199 201 197 195 193 192 193 194 196 199 199 201 202 202 203 201 201 203 202 202 201 198 197 196 193 196 200 201 199 201 197 188
169 271 257 200 208 210 207 188 270 248 188 210 216 150 171 193 214 210 130 231 222 235 269 289 237 238 202 242 182 200 207 215 218 225 224 223 211 201 204 206 206 207 206 205 204 203 204 204 203 203 203 203 203 201 200 199 194 193 195 196 194 195 198 196 197 201 203 202 202 201 200 200 203 202 201 198 196 194 198 198 198 199 202 198 193 189
161 222 280 234 190 205 183 158 215 216 256 248 97 189 179 135 211 179 203 162 135 256 261 277 166 246 187 199 188 188 205 213 213 210 215 221 214 205 205 202 202 204 206 204 202 202 203 204 204 203 203 203 202 202 203 198 193 195 196 194 196 199 198 197 200 201 203 203 202 202 199 202 203 201 198 197 194 198 201 201 199 199 197 199 193 195
253 134 239 269 238 176 216 178 199 204 206 214 212 206 207 221 245 189 174 199 201 197 204 238 267 248 228 199 173 193 196 208 201 207 212 216 214 210 208 205 203 204 203 203 202 203 204 205 205 204 204 203 203 202 197 189 192 197 193 195 196 194 194 197 201 201 205 201 204 200 199 200 201 201 198 195 197 201 203 200 199 199 198 187 198 192
254 185 230 229 221 208 217 181 197 202 206 211 202 211 203 185 142 183 231 162 154 190 220 177 246 269 265 185 187 188 209 201 206 201 213 218 216 209 210 210 207 205 203 201 202 203 204 205 205 203 202 203 201 198 192 196 196 193 192 196 194 194 196 199 200 202 201 200 200 200 200 201 200 199 195 196 198 203 202 199 199 194 186 193 199 194
345 280 235 233 225 206 209 210 201 207 204 213 196 217 190 186 124 179 216 239 220 235 114 186 267 261 226 184 186 186 200 210 208 196 210 218 215 212 213 213 211 207 201 201 202 204 205 204 202 200 197 196 196 197 196 193 192 194 195 193 192 193 199 200 201 199 196 198 198 200 200 199 200 196 196 196 199 205 201 199 194 186 190 194 195 197
343 249 336 292 301 287 271 268 256 226 207 214 218 202 183 201 193 207 214 184 192 252 216 305 244 266 254 181 206 196 191 205 211 198 211 224 222 221 218 220 212 210 212 207 203 204 207 205 201 199 196 197 199 196 192 194 195 194 193 192 191 197 200 200 200 196 197 198 199 197 198 201 199 196 197 198 202 204 201 196 192 185 192 192 189 193
356 313 57 349 312 268 262 317 284 273 181 216 208 209 207 194 200 211 103 102 215 198 182 144 244 209 281 268 235 213 212 204 203 207 200 219 230 215 218 220 217 216 215 208 204 205 205 201 195 196 197 197 197 195 194 193 193 192 193 192 195 200 199 199 196 195 197 197 197 196 200 202 198 199 199 201 202 205 200 196 190 187 192 188 191 191
203 267 328 220 218 229 221 215 223 229 234 290 243 213 206 201 203 169 221 149 219 238 168 206 242 241 280 318 283 232 210 223 225 208 206 208 211 219 221 220 215 210 212 211 211 209 204 200 196 194 194 195 195 195 194 193 193 194 192 195 196 196 195 198 194 196 194 194 196 198 200 201 201 201 200 201 203 204 200 195 191 189 191 189 191 186
249 270 236 256 243 250 292 304 279 277 169 218 217 209 214 212 205 205 206 198 215 207 207 224 165 238 233 174 256 235 209 211 228 205 200 215 231 232 228 221 213 210 210 209 209 209 206 197 194 193 194 194 193 193 193 192 193 194 194 196 196 195 195 194 192 193 193 195 197 197 201 201 203 200 200 200 203 201 199 197 194 190 191 187 189 186
32 336 270 285 272 274 289 279 283 291 274 229 210 219 220 217 214 209 207 222 128 142 244 186 200 146 230 242 230 246 245 233 229 237 207 224 230 221 223 223 221 218 218 216 216 213 204 200 197 193 194 195 194 193 192 192 193 192 193 195 194 193 192 192 193 192 196 195 196 198 201 203 200 199 199 199 199 199 199 197 195 194 188 182 187 188
303 281 285 341 312 312 301 289 291 290 276 267 219 209 216 219 216 219 222 189 168 203 229 173 185 172 239 225 222 228 218 218 230 235 232 231 230 225 234 232 222 216 215 210 206 204 205 203 199 196 194 194 191 189 190 190 192 193 196 196 193 191 194 191 189 193 195 196 199 201 200 198 197 197 196 195 196 198 197 196 196 192 188 186 188 189
338 232 299 330 313 309 308 306 306 308 294 273 249 219 209 212 220 222 223 202 200 217 225 208 186 199 200 214 217 227 220 225 250 234 292 286 247 215 213 218 220 219 216 210 205 201 202 205 202 199 194 190 188 189 189 189 189 191 191 192 192 196 196 185 191 194 194 199 202 200 195 194 194 193 191 193 197 199 196 194 192 191 192 191 189 188
69 282 339 325 316 308 303 306 315 331 332 305 272 241 217 212 219 221 220 209 210 231 228 198 189 223 244 223 218 227 247 311 25 267 236 239 249 232 220 224 223 224 220 213 204 198 197 199 201 198 192 191 190 191 190 189 191 191 192 192 190 194 189 186 192 194 197 204 202 194 190 191 193 189 191 195 196 194 194 192 191 194 195 193 191 190
90 265 328 325 321 311 311 344 327 321 318 288 266 252 235 214 215 219 219 202 179 207 218 211 221 228 260 245 244 284 267 253 242 236 243 251 244 228 221 229 230 227 222 213 203 197 196 198 198 191 193 194 194 193 190 190 190 187 191 191 193 193 185 187 192 196 201 205 195 189 190 192 189 190 194 191 193 193 190 188 191 196 198 196 195 193
175 325 333 327 320 269 290 318 319 316 317 300 249 230 228 238 227 222 226 206 200 186 195 220 230 202 216 212 188 246 233 237 244 255 247 266 256 212 224 245 265 260 233 215 203 195 196 197 195 194 195 194 193 192 193 189 184 189 192 191 196 183 182 190 194 198 203 201 192 191 191 188 188 192 192 193 191 186 183 189 195 199 199 199 197 187
175 164 221 8 273 297 299 315 310 315 264 239 266 222 201 228 224 220 221 220 229 183 212 212 219 214 213 183 173 217 224 225 196 235 232 258 254 224 236 238 239 249 275 272 241 209 202 199 198 199 195 192 192 191 191 186 188 193 192 191 182 177 186 190 196 199 203 198 194 192 187 186 188 193 194 190 185 183 187 192 199 201 200 197 190 193
213 172 245 177 247 287 301 314 316 241 244 276 332 205 206 214 199 211 217 228 218 220 252 315 250 231 217 198 197 204 181 139 149 89 18 354 349 275 229 214 226 255 264 260 254 236 207 194 197 195 196 198 192 190 183 189 193 189 187 183 180 186 188 193 196 199 200 196 193 187 186 187 190 192 190 187 185 187 193 197 200 199 197 194 195 196
220 209 203 220 220 261 286 237 255 233 250 309 302 360 352 346 203 151 262 256 248 229 180 193 204 218 210 166 139 159 141 162 143 74 41 2 19 6 7 337 292 237 228 223 233 248 238 224 197 189 197 194 185 183 183 189 188 184 189 186 189 192 194 195 198 202 198 195 191 189 188 187 190 189 187 187 188 193 198 198 197 199 197 195 197 201
219 210 156 276 186 223 223 240 247 288 306 310 352 8 3 335 317 285 227 244 228 207 171 187 195 194 162 150 153 148 165 152 62 354 5 10 354 2 14 347 355 349 322 291 222 209 200 204 279 268 217 181 184 181 188 190 184 189 188 187 193 191 195 195 200 202 196 196 192 191 189 188 188 188 187 188 192 198 198 197 200 202 193 195 198 199
204 200 171 186 247 199 246 275 302 309 249 271 196 304 302 291 282 271 285 275 275 242 209 181 179 166 144 152 151 161 134 81 55 326 327 353 349 350 353 10 2 1 353 355 349 325 209 187 173 147 174 218 199 192 190 181 182 184 184 191 191 191 196 197 203 202 198 198 195 193 190 189 186 187 188 190 197 198 198 200 200 200 192 197 198 202
209 194 185 183 230 235 252 236 236 255 255 212 331 331 326 318 309 291 75 255 285 309 3 127 143 176 160 152 167 141 97 106 195 259 306 338 338 358 352 353 358 1 9 13 3 348 332 299 195 161 135 172 215 215 192 181 180 179 189 191 190 191 194 201 206 202 200 203 199 195 190 187 187 189 191 195 198 195 197 199 199 197 193 200 202 206
222 199 169 195 230 223 202 236 262 229 272 327 338 335 324 311 299 221 192 245 273 345 334 84 123 124 102 134 134 111 129 143 187 237 309 336 326 347 6 358 356 356 358 360 9 355 320 282 161 156 168 189 211 189 249 224 189 186 190 191 186 190 201 205 206 203 204 205 201 194 189 188 191 193 194 197 195 195 198 195 193 192 193 199 203 202
199 178 165 178 201 197 173 255 294 289 278 342 345 331 319 312 285 175 202 235 222 36 344 82 123 173 153 128 145 108 34 133 141 56 345 347 355 358 8 12 0 350 352 359 8 1 352 6 76 184 201 205 175 152 155 154 208 216 204 189 184 197 203 204 202 202 206 205 198 193 193 194 195 197 199 198 194 194 192 191 193 191 192 198 199 197
183 128 98 125 171 186 158 179 238 267 281 356 337 330 310 308 203 201 282 296 309 51 21 65 99 87 107 92 104 104 115 79 72 51 47 36 38 23 16 6 2 5 1 3 9 20 12 1 23 45 44 27 343 179 156 160 185 205 201 195 208 210 205 204 202 203 204 203 201 200 198 199 202 202 202 197 189 188 196 197 192 190 193 194 193 192
219 159 172 164 139 62 77 83 286 285 258 7 337 333 13 24 322 299 297 320 343 357 27 15 60 63 95 94 82 100 98 80 65 49 40 34 30 27 24 23 25 17 7 1 354 1 9 2 7 15 9 352 6 122 171 169 179 191 193 208 224 224 215 200 201 210 210 201 197 199 199 201 200 199 199 195 193 194 196 188 189 192 191 190 186 178
277 205 161 162 165 143 167 182 206 223 301 332 342 336 345 327 309 308 327 333 344 352 328 6 23 39 77 106 109 90 87 88 56 37 42 39 38 32 35 33 27 19 12 6 2 358 2 9 0 356 356 358 358 349 198 170 185 193 189 211 200 180 197 186 180 179 186 194 207 207 207 205 202 197 194 191 188 190 187 184 189 188 188 185 177 166
233 255 164 160 201 161 191 201 223 343 323 313 315 307 307 308 349 357 19 19 359 341 328 317 69 59 75 103 92 96 84 63 78 45 58 27 22 22 27 26 32 30 20 13 10 358 5 1 353 353 350 355 354 357 352 333 182 179 207 211 167 191 182 182 175 176 183 188 189 190 189 176 183 192 195 188 184 187 190 193 187 188 186 174 168 164
280 292 158 104 177 348 346 97 119 27 334 321 331 316 320 342 16 17 20 17 2 347 351 19 356 12 31 52 106 79 90 122 95 75 71 51 42 23 17 20 25 24 25 24 20 17 9 356 350 349 346 342 358 353 351 352 347 274 230 183 180 179 172 168 175 179 185 181 177 175 167 169 173 174 173 171 180 188 191 192 188 183 172 167 166 166
267 260 253 139 168 132 213 177 168 131 286 341 338 334 341 354 8 30 22 33 13 355 348 351 18 31 33 41 67 92 90 89 91 92 94 79 62 43 36 32 20 16 17 15 15 14 23 21 10 357 347 338 348 348 348 345 346 329 334 313 291 198 168 170 172 175 174 177 178 171 168 172 170 171 174 175 178 185 191 187 181 174 172 174 172 174
255 255 256 159 145 154 192 140 133 109 80 309 27 11 346 344 355 20 22 31 19 5 360 341 345 32 28 50 42 74 69 48 68 70 68 66 67 60 53 43 27 24 13 15 9 12 26 21 24 20 5 351 340 343 344 348 348 342 339 315 318 314 280 190 180 182 187 183 179 178 177 180 184 181 184 183 180 181 181 181 179 180 181 182 182 179
293 300 215 167 152 155 104 128 93 106 133 344 21 36 326 339 357 14 29 31 17 355 344 339 339 26 48 49 36 70 68 44 48 55 63 50 43 42 40 39 43 43 30 18 10 19 23 12 16 22 30 9 351 348 344 346 350 351 349 336 326 317 308 294 267 234 213 200 190 190 183 172 132 231 200 184 179 174 175 178 184 189 197 196 189 186
249 244 245 173 152 179 174 179 173 138 181 156 333 21 6 313 64 58 60 47 30 346 315 307 345 21 50 50 59 67 77 68 45 52 58 46 38 30 24 28 27 29 25 16 22 29 30 24 11 19 11 7 359 357 355 352 350 347 352 354 348 346 319 298 288 281 256 239 206 134 122 128 140 134 117 143 160 146 92 38 52 90 189 185 156 148
263 255 261 208 166 176 149 155 171 158 131 156 165 250 246 266 94 87 78 83 55 296 280 271 129 57 59 55 53 77 80 76 57 63 61 48 37 28 31 32 30 23 18 10 16 14 17 16 30 27 19 7 358 358 358 354 349 352 351 352 358 354 343 334 311 294 296 300 210 173 162 154 148 150 152 159 162 150 134 112 53 38 27 335 175 156